Location: Burbank
(40.9887°N, 81.9949°W)
Time: 19:05:38
(UTC+00:00)

Daily predictions for brighter satellites

Satellite Brightness Start Highest point End
(mag) Time Altitude Azimuth Time Altitude Azimuth Time Altitude Azimuth
NOSS 0 Rocket 4.1 22:21:36 10° S 22:27:42 59° ESE 22:33:48 10° NNE
USA 281 4.4 22:23:13 10° E 22:27:42 20° NE 22:32:12 10° N
Cosmos 372 Rocket 3.9 22:22:33 10° NNW 22:27:43 72° ENE 22:32:52 10° SSE
NOAA 6 4.0 22:23:18 10° SSE 22:28:27 77° ENE 22:33:37 10° N
COSMOS 2428 3.1 22:24:18 10° SSW 22:30:01 71° WNW 22:35:45 10° NNE
Cosmos 2298 Rocket 4.2 22:27:52 10° N 22:33:01 49° ENE 22:38:09 10° SE
Cosmos 1818 4.1 22:28:51 10° NNW 22:33:55 37° NE 22:38:57 10° ESE
ISS -3.7 22:30:57 10° SW 22:34:18 82° SE 22:37:40 10° NE
Cosmos 2150 Rocket 4.2 22:29:46 10° N 22:34:45 46° ENE 22:39:40 10° SE
ERS-2 3.3 22:36:40 10° NE 22:39:44 25° E 22:42:46 10° SSE
Cosmos 1939 Rocket 4.2 22:37:21 10° ESE 22:39:55 17° ENE 22:42:30 10° NNE
Cosmos 2221 2.8 22:36:47 10° SSW 22:41:07 72° W 22:45:27 10° N
Cosmos 2278 Rocket 2.3 22:35:50 10° NNW 22:41:23 53° ENE 22:46:56 10° SE
Cosmos 2074 Rocket 4.1 22:35:16 10° N 22:41:32 89° W 22:47:47 10° S
CZ-4B R/B 2.2 22:40:50 10° NE 22:43:29 26° E 22:46:09 10° SSE
CSL-04 DEB 4.4 22:42:24 10° NNE 22:46:29 70° ESE 22:50:38 10° S
Cosmos 1500 Rocket 3.5 22:42:18 10° N 22:46:43 79° E 22:51:07 10° S
NOSS 2-1 (C) 4.4 22:42:31 10° NNW 22:47:49 69° NE 22:55:19 10° SE
TELKOM 3 3.2 22:45:52 10° SW 22:48:44 70° SSE 22:50:44 14° ENE
Cosmos 1125 Rocket 3.7 22:46:50 10° N 22:51:51 46° ENE 22:56:50 10° SE
Radarsat Rocket 4.2 22:46:15 10° SSE 22:52:08 82° WSW 22:58:34 10° NNW
Cosmos 2184 Rocket 4.3 22:46:41 10° N 22:53:04 76° W 22:59:24 10° S
NOSS 2-1 (D) 4.4 22:47:56 10° NNW 22:53:17 76° NE 23:00:53 10° SE
YAOGAN 1 4.3 22:55:22 13° ENE 22:55:35 13° ENE 22:57:35 10° NE
ADEOS Rocket 4.2 22:48:22 10° N 22:55:51 59° WNW 23:03:25 10° SSW
Cosmos 2219 Rocket 3.6 22:53:53 10° SW 22:59:02 36° WNW 23:04:13 10° N
USA 215 3.3 22:54:40 10° NE 23:01:14 90° NNE 23:07:47 10° SW
CZ-4B R/B 3.2 22:56:08 10° SSE 23:01:31 85° WSW 23:06:51 10° NNW
NOAA 12 4.1 22:56:47 10° SSE 23:02:07 90° W 23:07:29 10° NNW
Aureole 2 Rocket 4.5 22:59:47 10° NW 23:02:11 26° WSW 23:04:38 10° SSW
Okean-O 3.9 22:59:19 10° ESE 23:02:23 19° ENE 23:05:27 10° NNE
AQUARIUS 4.2 22:59:17 10° SSE 23:03:46 89° E 23:08:17 10° NNW
Cosmos 1295 Rocket 4.4 22:59:11 10° N 23:05:21 74° E 23:11:33 10° SSE
FengYun 1-2 T 4.2 23:00:42 10° SSE 23:06:13 70° ENE 23:11:43 10° N
SL-24 R/B - RUBIN 2 4.3 23:00:10 10° NNW 23:06:24 62° NE 23:11:53 10° SE
H-2A R/B 4.0 23:02:44 10° S 23:06:54 42° W 23:10:58 10° NNW
Cosmos 2237 Rocket 2.2 23:01:30 10° SSW 23:07:07 90° ESE 23:12:48 10° NNE
COSMO-SKYMED 1 3.1 23:03:54 10° NNE 23:07:58 38° E 23:11:59 10° SSE
Cosmos 1743 Rocket 4.3 23:04:20 10° NNW 23:08:44 57° W 23:13:04 10° S
NOAA 11 4.1 23:03:49 10° SSE 23:09:11 70° ENE 23:14:36 10° N
Okean O Rocket 2.0 23:10:30 10° S 23:14:48 67° WSW 23:19:09 10° NNW
Cosmos 1933 3.8 23:12:11 10° SSE 23:15:54 37° E 23:19:06 13° NNE
SL-24 R/B 4.4 23:13:00 11° NNE 23:16:32 35° E 23:19:59 10° SSE
Cosmos 405 Rocket 3.8 23:13:05 10° NNW 23:16:52 49° W 23:20:41 10° S
USA 81 4.4 23:14:51 10° N 23:19:50 40° E 23:24:47 10° SSE
Sich 1 2.9 23:15:34 10° N 23:19:58 67° E 23:24:17 10° SSE
PSLV R/B 4.4 23:20:05 19° NE 23:22:29 36° E 23:26:13 10° SSE
Cosmos 2369 Rocket 4.0 23:20:14 10° NNE 23:22:06 13° NE 23:22:06 13° NE
Cosmos 1980 4.2 23:19:32 10° SW 23:25:09 61° WNW 23:30:48 10° NNE
H-2A R/B 3.1 23:25:29 23° ENE 23:26:15 24° ENE 23:30:24 10° NNE
Cosmos 1805 Rocket 3.9 23:24:33 10° NNW 23:29:00 71° W 23:33:24 10° S
Helios 1A Rocket 3.5 23:26:01 10° SE 23:29:36 32° ENE 23:33:11 10° N
SKYMED 3 4.5 23:27:44 10° NNE 23:32:05 72° ESE 23:36:24 10° S
USA 267 3.5 23:27:58 19° E 23:32:31 51° NNE 23:38:46 10° NW
Cosmos 2218 Rocket 4.1 23:26:39 10° N 23:32:36 49° ENE 23:38:31 10° SSE
Cosmos 389 Rocket 2.7 23:30:00 10° SSW 23:33:24 69° W 23:36:46 10° N
Cosmos 1151 Rocket 3.1 23:30:43 10° SSE 23:34:52 50° E 23:37:28 21° NNE
Cosmos 1666 Rocket 3.5 23:30:45 10° N 23:35:07 61° E 23:39:30 10° SSE
Cosmos 773 Rocket 4.5 23:30:45 10° SSE 23:35:31 37° ESE 23:37:15 29° ENE
Cosmos 1782 4.2 23:33:18 10° SSE 23:35:11 22° SE 23:35:11 22° SE
Cosmos 1606 3.3 23:34:10 10° SSW 23:38:00 60° W 23:41:52 10° N
Cosmos 1328 Rocket 3.7 23:34:20 10° SSE 23:38:28 48° E 23:40:17 29° NE
Cosmos 2366 rocket 3.9 23:38:39 10° N 23:44:47 59° E 23:50:50 10° SSE
SL-24 DEB 4.3 23:41:10 10° NNE 23:45:51 54° E 23:50:27 10° S
BREEZE-M DEB (TANK) 4.0 23:36:25 10° SW 23:47:05 47° SSE 23:48:27 36° ESE
Cosmos 2297 3.8 23:42:10 10° NNW 23:47:41 49° ENE 23:50:36 26° ESE
BREEZE-M DEB (TANK) 3.4 23:45:39 10° W 23:47:24 26° NW 23:47:24 26° NW
Abrixas rocket 3.1 23:53:38 10° WNW 23:55:50 40° WSW 23:55:50 40° WSW
Lacrosse 5 rocket 1.4 23:52:49 10° SSW 23:55:53 48° SSE 23:55:53 48° SSE
